Location: Unspecified
(0.0000°N, 0.0000°E)
Time: 12:12:13
(UTC+00:00)

N. Korean satellite - Pass Details

Date: 11 December 2019
Orbit: 455 x 506 km, 97.2° (Epoch: 10 December)

Event Time Altitude Azimuth Distance (km) Brightness Sun altitude
Rises 04:47:24 0° 38° (NE) 2,466 10.3 -15.1°
Reaches altitude 10° 04:49:59 10° 60° (ENE) 1,591 9.7 -14.5°
Maximum altitude 04:52:13 17° 101° (E) 1,241 9.8 -14.0°
Drops below altitude 10° 04:54:28 10° 142° (SE) 1,592 10.2 -13.4°
Sets 04:57:02 0° 164° (SSE) 2,469 10.8 -12.9°
